User: anonymous   Login
Location: Unspecified
(0.0000°N, 0.0000°E)
Time: 18:45:43
(UTC+00:00)
Language:

Nadezhda 1 - Orbit

View from above orbital plane
View from above orbital plane
View from above satellite
View from above satellite

Ground track
Ground track

The orbit data is extracted from the following two-line orbital elements,

1 20103U 89050A   17145.82474164 +.00000036 +00000-0 +22408-4 0  9991
2 20103 082.9626 225.2742 0036861 340.3007 148.4689 13.74546255399054
Epoch (UTC): 25 May 2017 19:47:37
Eccentricity: 0.0036861
inclination: 82.9626°
perigee height: 956 km
apogee height: 1010 km
right ascension of ascending node: 225.2742°
argument of perigee: 340.3007°
revolutions per day: 13.74546255
mean anomaly at epoch: 148.4689°
orbit number at epoch: 39905

The dashed part of the orbit path shows where the satellite is in the earth's shadow,  

DLR